Location: Leedale
(52.5833°N, 114.4833°W)
Time: 15:28:32
(UTC+00:00)

Envisat - Pass Details

Date: 10 August 2024
Orbit: 762 x 764 km, 98.3° (Epoch: 09 September)

Event Time Altitude Azimuth Distance (km) Brightness Sun altitude
Rises 10:07:27 0° 21° (NNE) 3,241 7.8 -15.3°
Reaches altitude 10° 10:10:01 10° 32° (NNE) 2,310 6.9 -15.0°
Maximum altitude 10:14:32 31° 94° (E) 1,316 4.6 -14.6°
Drops below altitude 10° 10:19:00 10° 157° (SSE) 2,294 5.2 -14.2°
Enters shadow 10:20:39 - 164° (SSE) 2,886 5.6 -14.1°
